Regional Weather Roundup
Issued by NWS

Home | Current Version | Previous Version | Text Only | Print | Product List | Glossary Off
Versions: 1 2 3 4 5 6 7 8 9 10 11 12 13 14 15 16 17 18 19 20 21 22 23 24 25 26 27 28 29 30 31 32 33 34 35 36 37 38 39 40 41 42 43 44 45 46 47 48 49 50

153
ASUS44 KLIX 012305
RWRLA
LOUISIANA WEATHER ROUNDUP
NATIONAL WEATHER SERVICE NEW ORLEANS LA
600 PM CDT MON SEP 01 2014

NOTE: "FAIR" INDICATES FEW OR NO CLOUDS BELOW 12,000 FEET WITH NO
      SIGNIFICANT WEATHER AND/OR OBSTRUCTIONS TO VISIBILITY.
      SKY/WX - SKY CONDITION AND SIGNIFICANT WEATHER.
      TMP - AIR TEMPERATURE.    DP   - DEWPOINT TEMPERATURE.
      RH  - RELATIVE HUMIDITY.  PRES - PRESSURE.
      HX  - HEAT INDEX.         WCI  - WIND CHILL INDEX.

*  THESE STATIONS ARE NOT NWS OR FAA STATIONS AND ARE NOT UNDER
   NWS QUALITY CONTROL.

LAZ040-048-061>063-065-066-069-020000-
SOUTHEAST LOUISIANA

CITY           SKY/WX    TMP DP  RH WIND       PRES   REMARKS
N.O. AUDUBON   NOT AVBL
N.O. INTL ARPT CLOUDY    85  75  72 SE7       29.99S
N.O. LAKEFRONT CLOUDY    80  77  90 SE9       30.00S
N.O. DOWNTOWN* FAIR      82  73  74 SE3       30.00R
SLIDELL        CLOUDY    81  74  79 S6        30.00F
BATON ROUGE    CLOUDY    84  74  71 E8        29.99R
BOOTHVILLE     MOSUNNY   86  76  71 SE8       30.01S HX  96
BELLE CHASSE   PTSUNNY   86  72  62 S9        29.99R THUNDER
BOGALUSA*      MOCLDY    84  75  72 SE16G23   30.03R THUNDER
GALLIANO*      NOT AVBL
NEW ROADS*     MOCLDY    82  78  85 NE5       29.99R THUNDER
GONZALES*      FAIR      85  79  81 CALM      29.98R HX  97
HAMMOND*       NOT AVBL
HOUMA*         MOSUNNY   84  75  74 S8        29.99S
PORT FOURCHON* CLEAR     86  75  70 S10G17    30.01R HX  95

$$

LAZ041-044-053-054-020000-
SOUTHWEST LOUISIANA

CITY           SKY/WX    TMP DP  RH WIND       PRES   REMARKS
LAKE CHARLES   HVY RAIN  85  76  74 S12G25    29.94R
LAFAYETTE      PTSUNNY   86  75  69 S9        29.96R HX  95
PATTERSON      PTSUNNY   88  77  70 S9        29.99F HX 100
SALT POINT       N/A     88  78  72 VRB5      29.96S HX 101
NEW IBERIA     PTSUNNY   87  76  69 S14       29.96S HX  97
CHENAULT AIRPK MOSUNNY   84  77  79 S10       29.95R

$$

LAZ027-028-020000-
CENTRAL LOUISIANA

CITY           SKY/WX    TMP DP  RH WIND       PRES   REMARKS
FORT POLK      PTSUNNY   83  77  82 SE7       29.96R THUNDER
ALEXANDRIA INT CLOUDY    84  76  76 SE12      29.94R
ALEXANDRIA     TSTM      80  76  87 SW5       29.96S

$$

LAZ001-002-020000-
NORTHWEST LOUISIANA

CITY           SKY/WX    TMP DP  RH WIND       PRES   REMARKS
SHREVEPORT     MOSUNNY   95  69  42 S13       29.90R HX 100
BARKSDALE AFB  SUNNY     92  73  53 SE12      29.91R HX 100
DTN SHREVEPORT MOSUNNY   89  75  63 SE8       29.90S HX  99

$$

LAZ014-016-020000-
NORTHEAST LOUISIANA

CITY           SKY/WX    TMP DP  RH WIND       PRES   REMARKS
MONROE         MOSUNNY   90  73  57 S10       29.95F HX  98
TALLULAH       CLOUDY    81  72  74 S5        29.98F

$$




USA.gov is the U.S. government's official web portal to all federal, state and local government web resources and services.